When you browse on this site, cookies collect data to enhance your experience and personalize the content and advertising you see.
Visit our Privacy Policy to learn more. By continuing to use the site, you agree to this use of cookies and data.
  • en Suisse
  • Liste des pays
  • À 7 jours
  • Température de l'eau
  • Carte satellitaire
  • Carte météo
  • Widgets météo
  • user-avatar
    Se connecter

    Météo par heure à Askish

    Ce jour, 20 Novembre, Mardi

    Heure Température Précipitation Vent Pression Humidité
    00:00 -1°C° 0.2 mm 1 m/s 751 mmHg 96%
    01:00 -1°C° 0.2 mm 1 m/s 751 mmHg 96%
    02:00 -1°C° 0.2 mm 1 m/s 751 mmHg 96%
    03:00 -1°C° 0.2 mm 1 m/s 751 mmHg 96%
    04:00 -1°C° 0 mm 1 m/s 750 mmHg 96%
    05:00 -1°C° 0.2 mm 1 m/s 750 mmHg 96%
    06:00 -1°C° 0.2 mm 1 m/s 750 mmHg 96%
    07:00 -1°C° 0.2 mm 1 m/s 750 mmHg 96%
    08:00 -1°C° 0.1 mm 1 m/s 750 mmHg 95%
    09:00 -1°C° 0.1 mm 1 m/s 750 mmHg 94%
    10:00 -1°C° 0 mm 1 m/s 750 mmHg 93%
    11:00 0°C° 0 mm 1 m/s 750 mmHg 92%
    12:00 0°C° 0 mm 1 m/s 749 mmHg 91%
    13:00 -2°C° 0 mm 2 m/s 749 mmHg 90%
    14:00 -2°C° 0 mm 2 m/s 749 mmHg 92%
    15:00 -2°C° 0 mm 2 m/s 749 mmHg 93%
    16:00 -2°C° 0 mm 2 m/s 748 mmHg 95%
    17:00 -3°C° 0 mm 2 m/s 748 mmHg 95%
    18:00 -3°C° 0 mm 2 m/s 748 mmHg 95%
    19:00 -3°C° 0 mm 2 m/s 747 mmHg 96%
    20:00 -3°C° 0 mm 2 m/s 747 mmHg 95%
    21:00 -3°C° 0 mm 2 m/s 746 mmHg 95%
    22:00 -4°C° 0 mm 3 m/s 746 mmHg 94%
    23:00 -4°C° 0.1 mm 3 m/s 745 mmHg 93%

    Demain, 21 Novembre, Mercredi

    Heure Température Précipitation Vent Pression Humidité
    00:00 -4°C° 0.1 mm 3 m/s 745 mmHg 92%
    01:00 -4°C° 0.1 mm 4 m/s 745 mmHg 91%
    02:00 -5°C° 0 mm 4 m/s 744 mmHg 90%
    03:00 -5°C° 0 mm 4 m/s 743 mmHg 89%
    04:00 -6°C° 0 mm 5 m/s 743 mmHg 88%
    05:00 -6°C° 0.1 mm 5 m/s 742 mmHg 87%
    06:00 -6°C° 0.1 mm 5 m/s 741 mmHg 86%
    07:00 -8°C° 0.1 mm 6 m/s 740 mmHg 85%
    08:00 -8°C° 0.2 mm 6 m/s 740 mmHg 86%
    09:00 -8°C° 0.2 mm 6 m/s 739 mmHg 87%
    10:00 -8°C° 0.2 mm 6 m/s 738 mmHg 88%
    11:00 -8°C° 0.5 mm 6 m/s 737 mmHg 89%
    12:00 -6°C° 0.5 mm 6 m/s 737 mmHg 89%
    13:00 -6°C° 0.5 mm 6 m/s 736 mmHg 90%
    14:00 -6°C° 0.4 mm 5 m/s 735 mmHg 90%
    15:00 -6°C° 0.4 mm 5 m/s 735 mmHg 90%
    16:00 -6°C° 0.4 mm 5 m/s 734 mmHg 91%
    17:00 -6°C° 0.4 mm 5 m/s 734 mmHg 91%
    18:00 -6°C° 0.4 mm 5 m/s 734 mmHg 90%
    19:00 -6°C° 0.4 mm 5 m/s 733 mmHg 90%
    20:00 -7°C° 0.2 mm 5 m/s 733 mmHg 88%
    21:00 -7°C° 0.2 mm 5 m/s 733 mmHg 86%
    22:00 -8°C° 0.2 mm 5 m/s 733 mmHg 84%
    23:00 -8°C° 0.1 mm 5 m/s 733 mmHg 85%

    Après-demain, 22 Novembre, Jeudi

    Heure Température Précipitation Vent Pression Humidité
    00:00 -10°C° 0.1 mm 6 m/s 734 mmHg 87%
    01:00 -10°C° 0.1 mm 6 m/s 734 mmHg 88%
    02:00 -10°C° 0.2 mm 5 m/s 734 mmHg 87%
    03:00 -10°C° 0.2 mm 5 m/s 734 mmHg 86%
    04:00 -10°C° 0.2 mm 5 m/s 734 mmHg 86%
    05:00 -10°C° 0.2 mm 5 m/s 734 mmHg 86%
    06:00 -9°C° 0.2 mm 4 m/s 735 mmHg 87%
    07:00 -10°C° 0.2 mm 4 m/s 735 mmHg 87%
    08:00 -10°C° 0.1 mm 4 m/s 735 mmHg 86%
    09:00 -11°C° 0.1 mm 4 m/s 735 mmHg 85%
    10:00 -10°C° 0.1 mm 3 m/s 736 mmHg 83%
    11:00 -11°C° 0 mm 4 m/s 736 mmHg 83%
    12:00 -11°C° 0 mm 4 m/s 736 mmHg 82%
    13:00 -11°C° 0 mm 4 m/s 736 mmHg 81%
    14:00 -10°C° 0 mm 3 m/s 736 mmHg 84%
    15:00 -12°C° 0 mm 3 m/s 736 mmHg 86%
    16:00 -12°C° 0 mm 2 m/s 736 mmHg 89%
    17:00 -13°C° 0 mm 3 m/s 736 mmHg 91%
    18:00 -13°C° 0 mm 3 m/s 735 mmHg 92%
    19:00 -14°C° 0 mm 3 m/s 735 mmHg 93%
    20:00 -13°C° 0.1 mm 3 m/s 734 mmHg 92%
    21:00 -14°C° 0.1 mm 4 m/s 733 mmHg 90%
    22:00 -13°C° 0.1 mm 5 m/s 733 mmHg 88%
    23:00 -12°C° 0.4 mm 5 m/s 732 mmHg 89%

    23 Novembre, Vendredi

    Heure Température Précipitation Vent Pression Humidité
    00:00 -11°C° 0.4 mm 5 m/s 731 mmHg 90%
    01:00 -10°C° 0.4 mm 5 m/s 731 mmHg 91%
    02:00 -10°C° 0.5 mm 5 m/s 730 mmHg 91%
    03:00 -8°C° 0.5 mm 5 m/s 730 mmHg 91%
    04:00 -8°C° 0.5 mm 5 m/s 730 mmHg 91%
    05:00 -8°C° 0.2 mm 4 m/s 730 mmHg 92%
    06:00 -8°C° 0.2 mm 4 m/s 730 mmHg 93%
    07:00 -7°C° 0.2 mm 3 m/s 730 mmHg 94%
    08:00 -7°C° 0.2 mm 3 m/s 730 mmHg 93%
    09:00 -8°C° 0.2 mm 3 m/s 731 mmHg 93%
    10:00 -8°C° 0.2 mm 3 m/s 731 mmHg 93%
    11:00 -8°C° 0.1 mm 3 m/s 732 mmHg 92%
    12:00 -8°C° 0.1 mm 3 m/s 732 mmHg 90%
    13:00 -8°C° 0.1 mm 3 m/s 733 mmHg 89%
    14:00 -10°C° 0 mm 4 m/s 733 mmHg 88%
    15:00 -11°C° 0 mm 4 m/s 734 mmHg 87%
    16:00 -12°C° 0 mm 4 m/s 735 mmHg 86%
    17:00 -13°C° 0 mm 5 m/s 735 mmHg 86%
    18:00 -14°C° 0 mm 5 m/s 736 mmHg 85%
    19:00 -15°C° 0 mm 5 m/s 737 mmHg 84%
    20:00 -15°C° 0 mm 5 m/s 738 mmHg 85%
    21:00 -17°C° 0 mm 5 m/s 738 mmHg 87%
    22:00 -17°C° 0 mm 4 m/s 739 mmHg 88%
    23:00 -18°C° 0 mm 4 m/s 740 mmHg 90%

    24 Novembre, Samedi

    Heure Température Précipitation Vent Pression Humidité
    00:00 -17°C° 0 mm 3 m/s 741 mmHg 92%
    01:00 -18°C° 0 mm 3 m/s 741 mmHg 94%
    02:00 -19°C° 0 mm 3 m/s 742 mmHg 95%
    03:00 -18°C° 0 mm 2 m/s 742 mmHg 96%
    04:00 -18°C° 0 mm 2 m/s 743 mmHg 97%
    05:00 -18°C° 0 mm 2 m/s 743 mmHg 97%
    06:00 -18°C° 0 mm 2 m/s 743 mmHg 97%
    07:00 -18°C° 0 mm 2 m/s 743 mmHg 98%
    08:00 -18°C° 0.1 mm 3 m/s 743 mmHg 96%
    09:00 -16°C° 0.1 mm 3 m/s 744 mmHg 95%
    10:00 -16°C° 0.1 mm 4 m/s 744 mmHg 94%
    11:00 -15°C° 0.1 mm 4 m/s 743 mmHg 92%
    12:00 -14°C° 0.1 mm 5 m/s 743 mmHg 91%
    13:00 -13°C° 0.1 mm 5 m/s 743 mmHg 90%
    14:00 -12°C° 0.3 mm 6 m/s 742 mmHg 90%
    15:00 -12°C° 0.3 mm 6 m/s 742 mmHg 91%
    16:00 -12°C° 0.3 mm 7 m/s 742 mmHg 91%
    17:00 -12°C° 0.3 mm 7 m/s 742 mmHg 90%
    18:00 -11°C° 0.3 mm 7 m/s 742 mmHg 90%
    19:00 -11°C° 0.3 mm 7 m/s 741 mmHg 89%
    20:00 -11°C° 0.2 mm 7 m/s 741 mmHg 89%
    21:00 -11°C° 0.2 mm 7 m/s 741 mmHg 88%
    22:00 -11°C° 0.2 mm 7 m/s 741 mmHg 87%
    23:00 -11°C° 0.2 mm 7 m/s 741 mmHg 88%

    25 Novembre, Dimanche

    Heure Température Précipitation Vent Pression Humidité
    00:00 -9°C° 0.2 mm 7 m/s 741 mmHg 88%
    01:00 -9°C° 0.2 mm 7 m/s 741 mmHg 89%
    02:00 -9°C° 0.2 mm 7 m/s 741 mmHg 89%
    03:00 -9°C° 0.2 mm 7 m/s 740 mmHg 88%
    04:00 -8°C° 0.2 mm 7 m/s 740 mmHg 88%
    05:00 -8°C° 0.2 mm 8 m/s 740 mmHg 88%
    06:00 -8°C° 0.2 mm 8 m/s 739 mmHg 88%
    07:00 -8°C° 0.2 mm 8 m/s 739 mmHg 87%
    08:00 -8°C° 0.3 mm 8 m/s 739 mmHg 88%
    09:00 -8°C° 0.3 mm 8 m/s 740 mmHg 88%
    10:00 -7°C° 0.3 mm 7 m/s 740 mmHg 88%
    11:00 -7°C° 0.2 mm 7 m/s 740 mmHg 87%
    12:00 -7°C° 0.2 mm 7 m/s 741 mmHg 87%
    13:00 -7°C° 0.2 mm 7 m/s 741 mmHg 87%
    14:00 -6°C° 0.1 mm 6 m/s 742 mmHg 87%
    15:00 -6°C° 0.1 mm 6 m/s 742 mmHg 87%
    16:00 -6°C° 0.1 mm 5 m/s 743 mmHg 87%
    17:00 -7°C° 0.1 mm 5 m/s 743 mmHg 88%
    18:00 -7°C° 0.1 mm 5 m/s 744 mmHg 90%
    19:00 -7°C° 0.1 mm 4 m/s 745 mmHg 91%
    20:00 -7°C° 0.1 mm 4 m/s 745 mmHg 91%
    21:00 -8°C° 0.1 mm 4 m/s 745 mmHg 92%
    22:00 -8°C° 0.1 mm 4 m/s 746 mmHg 92%
    23:00 -8°C° 0 mm 4 m/s 746 mmHg 93%
    Voir plus